Location: *
(48.8780°N, 19.2358°E)
Time: 07:15:32
(UTC+00:00)

STARLINK-50 - Pass Details

Date: 18 October 2019
Orbit: 548 x 551 km, 53.0° (Epoch: 19 November)

Event Time Altitude Azimuth Distance (km) Brightness Sun altitude
Rises 17:08:48 0° 265° (W) 2,714 9.1 -13.9°
Reaches altitude 10° 17:11:04 10° 270° (W) 1,822 7.7 -14.3°
Maximum altitude 17:15:08 54° 348° (NNW) 676 4.1 -15.0°
Enters shadow 17:17:31 23° 57° (ENE) 1,203 4.9 -15.4°
